N5CSC Weather Reports


time (UTC)temp
F
wind
direction
speed
knots
gust
knots
rain 1hr
in
rain 24hr
in
rain mn
in
humidity
%
barometer
mb
20260901203053 100 66 0.0 6.1 0.00 0.00 0.00 29 1011.0
20260901201545 100 195 0.0 5.2 0.00 0.00 0.00 30 1011.3
20260901200034 99 153 1.7 8.7 0.00 0.00 0.00 30 1011.4
20260901194530 99 117 0.0 5.2 0.00 0.00 0.00 30 1011.8
20260901193026 99 200 0.0 4.3 0.00 0.00 0.00 32 1012.0
20260901191523 98 205 0.0 6.1 0.00 0.00 0.00 34 1012.1
20260901190020 97 336 0.0 2.6 0.00 0.00 0.00 35 1012.3
20260901184516 96 109 0.0 6.1 0.00 0.00 0.00 36 1012.5
20260901183013 96 42 0.0 1.7 0.00 0.00 0.00 38 1012.9
20260901181518 96 196 0.0 1.7 0.00 0.00 0.00 38 1013.1
20260901180011 96 146 0.0 3.5 0.00 0.00 0.00 38 1013.4
20260901174510 96 162 0.9 4.3 0.00 0.00 0.00 40 1013.5
20260901173005 94 20 0.0 2.6 0.00 0.00 0.00 43 1013.8
20260901171502 94 176 0.9 5.2 0.00 0.00 0.00 45 1013.9
20260901170101 94 174 0.0 5.2 0.00 0.00 0.00 44 1014.1
20260901164555 91 214 0.0 1.7 0.00 0.00 0.00 49 1014.3
20260901163059 91 275 0.0 1.7 0.00 0.00 0.00 50 1014.3
20260901161551 90 127 0.0 2.6 0.00 0.00 0.00 52 1014.5
20260901160057 88 190 0.0 3.5 0.00 0.00 0.00 57 1014.5
20260901154543 87 19 0.0 0.0 0.00 0.00 0.00 62 1014.5
20260901153041 86 164 0.0 0.0 0.00 0.00 0.00 63 1014.5
20260901151537 85 108 0.0 0.9 0.00 0.00 0.00 67 1014.6
20260901150035 84 194 0.0 0.9 0.00 0.00 0.00 70 1014.5
20260901144532 83 192 0.0 4.3 0.00 0.00 0.00 73 1014.6
20260901143033 82 186 0.0 5.2 0.00 0.00 0.00 75 1014.6
20260901141532 81 150 0.0 0.0 0.00 0.00 0.00 77 1014.5
20260901140030 81 153 0.0 0.0 0.00 0.00 0.00 78 1014.4
20260901134549 80 153 0.0 0.0 0.00 0.00 0.00 79 1014.5
20260901133031 79 153 0.0 0.0 0.00 0.00 0.00 79 1014.5
20260901131529 78 159 0.0 0.0 0.00 0.00 0.00 79 1014.4
20260901130030 77 159 0.0 0.0 0.00 0.00 0.00 79 1014.2
20260901124527 77 162 0.0 0.0 0.00 0.00 0.00 79 1013.9
20260901123023 76 162 0.0 0.0 0.00 0.00 0.00 78 1013.9
20260901121523 77 162 0.0 0.0 0.00 0.00 0.00 77 1013.8
20260901120019 77 162 0.0 0.0 0.00 0.00 0.00 77 1013.7
20260901114521 78 162 0.0 0.0 0.00 0.00 0.00 77 1013.8
20260901113019 78 162 0.0 0.0 0.00 0.00 0.00 77 1013.9
20260901111517 78 162 0.0 0.0 0.00 0.00 0.00 77 1013.9
20260901110017 78 162 0.0 0.0 0.00 0.00 0.00 77 1013.8
20260901104516 79 162 0.0 0.0 0.00 0.00 0.00 77 1013.9
20260901103015 78 162 0.0 0.0 0.00 0.00 0.00 77 1014.0
20260901101515 78 172 0.0 0.0 0.00 0.00 0.00 77 1013.7
20260901100015 78 173 0.0 0.0 0.00 0.00 0.00 75 1013.6
20260901094513 78 173 0.0 0.0 0.00 0.00 0.00 75 1013.6
20260901093019 78 173 0.0 0.0 0.00 0.00 0.00 75 1013.7
20260901091511 79 173 0.0 0.0 0.00 0.00 0.00 74 1013.6
20260901090013 79 173 0.0 0.0 0.00 0.00 0.00 74 1013.8
20260901084524 79 173 0.0 0.0 0.00 0.00 0.00 73 1014.0
20260901083007 79 173 0.0 0.0 0.00 0.00 0.00 73 1013.8
20260901081505 80 173 0.0 0.0 0.00 0.00 0.00 73 1013.9
20260901080006 80 173 0.0 0.0 0.00 0.00 0.00 72 1013.9
20260901074502 80 173 0.0 0.0 0.00 0.00 0.00 73 1013.7
20260901073001 81 173 0.0 0.0 0.00 0.00 0.00 72 1013.7
20260901071600 81 173 0.0 0.0 0.00 0.00 0.00 71 1013.8
20260901070104 81 173 0.0 0.0 0.00 0.00 0.00 71 1013.8
20260901064557 81 176 0.0 0.0 0.00 0.00 0.00 70 1013.8
20260901063056 82 181 0.0 1.7 0.00 0.00 0.00 68 1013.9
20260901061553 82 186 0.0 0.0 0.00 0.00 0.00 67 1013.8
20260901060050 82 151 0.0 0.0 0.00 0.00 0.00 65 1013.6
20260901054549 83 143 0.0 0.0 0.00 0.00 0.00 64 1013.4
20260901053105 83 136 0.0 0.0 0.00 0.00 0.00 62 1013.3
20260901051541 84 161 0.0 0.0 0.00 0.00 0.00 61 1013.3
20260901050039 84 138 0.0 1.7 0.00 0.00 0.00 60 1013.1
20260901044559 84 112 0.0 1.7 0.00 0.00 0.00 59 1013.0
20260901043040 85 176 0.0 3.5 0.00 0.00 0.00 58 1012.8
20260901041537 85 119 0.0 1.7 0.00 0.00 0.00 57 1013.0
20260901040037 86 155 0.9 6.1 0.00 0.00 0.00 56 1012.9
20260901034541 86 160 0.0 5.2 0.00 0.00 0.00 55 1012.8
20260901033138 87 155 0.0 8.7 0.00 0.00 0.00 53 1012.7
20260901031544 88 150 1.7 6.1 0.00 0.00 0.00 51 1012.5
20260901030034 88 135 0.0 5.2 0.00 0.00 0.00 50 1012.3
20260901024536 89 163 0.9 7.0 0.00 0.00 0.00 48 1012.0
20260901023039 90 121 0.0 6.1 0.00 0.00 0.00 47 1011.8
20260901021538 90 158 0.0 3.5 0.00 0.00 0.00 44 1011.7
20260901020054 91 148 0.0 3.5 0.00 0.00 0.00 43 1011.4
20260901014531 92 120 0.9 9.6 0.00 0.00 0.00 42 1011.1
20260901013030 92 108 3.5 8.7 0.00 0.00 0.00 41 1010.9
20260901011537 93 101 1.7 7.8 0.00 0.00 0.00 41 1010.7
20260901010028 94 107 3.5 7.8 0.00 0.00 0.00 39 1010.4
20260901004527 95 88 1.7 6.1 0.00 0.00 0.00 35 1010.4
20260901003030 96 107 0.0 2.6 0.00 0.00 0.00 33 1010.2
20260901001528 96 109 0.0 2.6 0.00 0.00 0.00 32 1010.1
20260901000026 96 111 0.0 3.5 0.00 0.00 0.00 31 1010.0
20260831234526 97 119 0.0 4.3 0.00 0.00 0.00 32 1009.9
20260831233038 97 108 0.0 2.6 0.00 0.00 0.00 30 1009.9
20260831231526 98 65 0.0 3.5 0.00 0.00 0.00 30 1009.9
20260831230024 98 112 0.0 3.5 0.00 0.00 0.00 30 1010.0
20260831224522 99 107 0.0 4.3 0.00 0.00 0.00 29 1010.1
20260831223121 99 105 0.0 6.1 0.00 0.00 0.00 30 1010.0
20260831221519 99 140 0.0 3.5 0.00 0.00 0.00 31 1010.2
20260831220022 99 173 0.0 1.7 0.00 0.00 0.00 31 1010.4
20260831214517 97 167 0.9 5.2 0.00 0.00 0.00 33 1010.7
20260831213026 97 123 0.0 1.7 0.00 0.00 0.00 34 1010.8
20260831211513 98 109 0.0 2.6 0.00 0.00 0.00 34 1011.0
20260831210013 98 154 0.0 3.5 0.00 0.00 0.00 34 1011.2
20260831204512 100 99 0.0 7.0 0.00 0.00 0.00 32 1011.4